Weather History for 84686 - December, 2013

Change the Weather History Date:

Monday, December 16, 2013

  Actual Average Record
Temperature  
Mean Temperature 60 °F -  
Max Temperature 71 °F 67 °F - ()
Min Temperature 50 °F 44 °F - ()
Degree Days  
Heating Degree Days 4    
Growing Degree Days 10 (Base 50)    
Moisture  
Dew Point 42 °F    
Average Humidity 54    
Maximum Humidity 87    
Minimum Humidity 19    
Precipitation  
Precipitation 0.00 in 0.19 in - ()
Sea Level Pressure  
Sea Level Pressure 30.37 in    
Wind  
Wind Speed 3 mph ()    
Max Wind Speed 13 mph    
Max Gust Speed -    
Visibility 6.4 miles    
Events Rain    
T = Trace of Precipitation, MM = Missing Value Source: Averaged Metar Reports

Daily Weather History Graph

Daily Weather History Graph

Search for Another Location

Airport or City:

Trip Planner

Search our weather history database for the weather conditions in past years. The results will help you decide how hot, cold, wet, or windy it might be!

Date:

Astronomy

Dec. 16, 2013 Rise Set
Actual Time 5:15 AM PET 6:11 PM PET
Civil Twilight 4:52 AM PET 6:34 PM PET
Nautical Twilight 4:24 AM PET 7:02 PM PET
Astronomical Twilight 3:56 AM PET 7:30 PM PET
Moon 5:43 PM PET (12/16) 4:38 AM PET (12/16)
Length of Visible Light 13h 42m
Length of Day
12h 55m
Full, 100% of the Moon is Illuminated
Dec 16
Full
Dec 17
Full
Dec 25
Last Quarter
Jan 1
New
Jan 7
First Quarter

Hourly Weather History & Observations

Time (PET) Temp. Dew Point Humidity Pressure Visibility Wind Dir Wind Speed Gust Speed Precip Events Conditions
12:00 AM 53.6 °F 42.8 °F 67% 30.45 in 6.2 mi SSE 4.6 mph - N/A   Light Drizzle
1:00 AM 51 °F 44 °F 69%  in 6 mi Calm Calm - - Rain Light Drizzle
1:00 AM 51.8 °F 44.6 °F 76% 30.42 in 6.2 mi Calm Calm - N/A   Mostly Cloudy
2:00 AM 50.0 °F 46.4 °F 87% 30.39 in 6.2 mi East 3.5 mph - N/A   Mostly Cloudy
3:00 AM 50.0 °F 46.4 °F 87% 30.39 in 6.2 mi East 4.6 mph - N/A   Mostly Cloudy
4:00 AM 51 °F 46 °F 76%  in 6 mi Calm Calm - -   Partly Cloudy
4:00 AM 50.0 °F 46.4 °F 87% 30.39 in 6.2 mi Calm Calm - N/A   Mostly Cloudy
5:00 AM 51.8 °F 46.4 °F 82% 30.39 in 6.2 mi Calm Calm - N/A   Mostly Cloudy
5:30 AM 50.0 °F 46.4 °F 87% 30.42 in 6.2 mi ESE 3.5 mph - N/A   Mostly Cloudy
6:00 AM 50.0 °F 46.4 °F 87% 30.42 in 6.2 mi Calm Calm - N/A   Mostly Cloudy
6:30 AM 51.8 °F 46.4 °F 82% 30.45 in 6.2 mi ENE 2.3 mph - N/A   Mostly Cloudy
7:00 AM 51.8 °F 46.4 °F 82% 30.45 in 6.2 mi East 3.5 mph - N/A   Mostly Cloudy
7:30 AM 51.8 °F 46.4 °F 82% 30.48 in 6.2 mi Variable 2.3 mph - N/A   Mostly Cloudy
8:00 AM 53.6 °F 46.4 °F 77% 30.48 in 6.2 mi Calm Calm - N/A   Mostly Cloudy
8:30 AM 57.2 °F 46.4 °F 67% 30.48 in 6.2 mi Calm Calm - N/A   Mostly Cloudy
9:00 AM 59.0 °F 42.8 °F 55% 30.45 in 6.2 mi Calm Calm - N/A   Mostly Cloudy
9:30 AM 62.6 °F 41.0 °F 45% 30.45 in 6.2 mi Variable 4.6 mph - N/A   Scattered Clouds
10:00 AM 64 °F 39 °F 28%  in 9 mi 2.3 mph - -   Partly Cloudy
10:00 AM 64.4 °F 39.2 °F 40% 30.45 in 6.2 mi Variable 2.3 mph - N/A   Scattered Clouds
10:30 AM 66.2 °F 37.4 °F 35% 30.42 in 6.2 mi Variable 2.3 mph - N/A   Scattered Clouds
11:00 AM 66.2 °F 39.2 °F 37% 30.42 in 6.2 mi Variable 3.5 mph - N/A   Scattered Clouds
11:30 AM 68.0 °F 41.0 °F 37% 30.42 in 6.2 mi Variable 3.5 mph - N/A   Scattered Clouds
12:00 PM 68.0 °F 41.0 °F 37% 30.39 in 6.2 mi Variable 3.5 mph - N/A   Scattered Clouds
12:30 PM 69.8 °F 39.2 °F 33% 30.36 in 6.2 mi Variable 5.8 mph - N/A   Scattered Clouds
1:00 PM 68 °F 35 °F 19%  in 9 mi NE 5.8 mph - -   Partly Cloudy
1:00 PM 68.0 °F 35.6 °F 30% 30.33 in 6.2 mi NE 5.8 mph - N/A   Scattered Clouds
1:30 PM 71.6 °F 39.2 °F 31% 30.30 in 6.2 mi Calm Calm - N/A   Scattered Clouds
2:00 PM 68.0 °F 35.6 °F 30% 30.30 in 6.2 mi East 5.8 mph - N/A   Scattered Clouds
2:30 PM 66.2 °F 37.4 °F 35% 30.27 in 6.2 mi SE 5.8 mph - N/A   Mostly Cloudy
3:00 PM 68.0 °F 37.4 °F 33% 30.27 in 6.2 mi Calm Calm - N/A   Mostly Cloudy
3:30 PM 68.0 °F 39.2 °F 35% 30.27 in 6.2 mi West 10.4 mph - N/A   Mostly Cloudy
4:00 PM 67 °F 41 °F 27%  in 9 mi West 12.7 mph - -   Partly Cloudy
4:00 PM 68.0 °F 41.0 °F 37% 30.24 in 6.2 mi West 12.7 mph - N/A   Mostly Cloudy
4:30 PM 68.0 °F 41.0 °F 37% 30.24 in 6.2 mi NW 8.1 mph - N/A   Mostly Cloudy
5:00 PM 68.0 °F 39.2 °F 35% 30.24 in 6.2 mi West 9.2 mph - N/A   Mostly Cloudy
5:30 PM 66.2 °F 39.2 °F 37% 30.27 in 6.2 mi West 10.4 mph - N/A   Mostly Cloudy
6:00 PM 64.4 °F 41.0 °F 42% 30.27 in 6.2 mi West 8.1 mph - N/A   Scattered Clouds
7:00 PM 61 °F 41 °F 36%  in 6 mi West 10.4 mph - -   Partly Cloudy
7:00 PM 60.8 °F 41.0 °F 48% 30.30 in 6.2 mi West 10.4 mph - N/A   Partly Cloudy
8:00 PM 60.8 °F 42.8 °F 52% 30.36 in 6.2 mi Calm Calm - N/A   Scattered Clouds
9:00 PM 59.0 °F 44.6 °F 59% 30.39 in 6.2 mi Calm Calm - N/A   Scattered Clouds
10:00 PM 56 °F 45 °F 56%  in 6 mi Calm Calm - -   Partly Cloudy
10:00 PM 55.4 °F 44.6 °F 67% 30.42 in 6.2 mi Calm Calm - N/A   Scattered Clouds
11:00 PM 53.6 °F 44.6 °F 72% 30.42 in 6.2 mi Calm Calm - N/A   Partly Cloudy